Regional Weather Roundup
Issued by NWS

Home | Current Version | Previous Version | Text Only | Print | Product List | Glossary On
Versions: 1 2 3 4 5 6 7 8 9 10 11 12 13 14 15 16 17 18 19 20 21 22 23 24 25 26 27 28 29 30 31 32 33 34 35 36 37 38 39 40 41 42 43 44 45 46 47 48 49 50
000
ASCA42 TJSJ 300910
RWRPR
PUERTO RICO/U.S. VIRGIN ISLANDS HOURLY WEATHER ROUNDUP
NATIONAL WEATHER SERVICE SAN JUAN PR
500 AM AST SAT MAY 30 2015

PRZ001-004-301000-
PUERTO RICO

CITY           SKY/WX    TMP DP  RH WIND       PRES   REMARKS
SAN JUAN LMM   PTCLDY    77  73  88 CALM      29.97S
PONCE          PTCLDY    75  70  83 NE6       29.93S
CEIBA          CLOUDY    75  73  94 NW5       29.99S
$$

PRZ006-007-301000-
U.S. VIRGIN ISLANDS

CITY           SKY/WX    TMP DP  RH WIND       PRES   REMARKS
CHARLOTTE AMA  LGT RAIN  77  73  88 NE5       29.96S
CHRISTIANSTED  CLEAR     75  73  94 N3        29.96S
$$

HOURLY WEATHER ROUNDUP FOR THE NEWS MEDIA

CITY           SKY/WX    TMP DP  RH WIND       PRES   REMARKS
ORLANDO        CLEAR     73  69  87 NE6       30.05S
NEW YORK       PTCLDY    63  60  90 S3        30.22R
NEWARK         MOCLDY    67  63  87 S5        30.20R
CHICAGO        CLOUDY    69  65  86 W6        29.93S
HARTFORD       FOG       59  59 100 S6        30.21S VSB 1/2
BOSTON         CLEAR     59  56  89 CALM      30.19S
DALLAS         CLOUDY    73  68  84 CALM      29.96S
PHILADELPHIA   PTCLDY    69  65  86 S5        30.20S
LOS ANGELES    FOG       57  57 100 W3        29.93F VSB 3/4
WASHINGTON DC  MOCLDY    68  67  96 S3        30.18R



USA.gov is the U.S. government's official web portal to all federal, state and local government web resources and services.